Location: Newark
(52.8300°N, 8.0000°E)
Time: 05:47:19
(UTC+00:00)

STARLINK-1101 - Pass Details

Date: 31 January 2020
Orbit: 548 x 551 km, 53.0° (Epoch: 23 February)

Event Time Altitude Azimuth Distance (km) Brightness Sun altitude
Rises 16:49:41 0° 285° (WNW) 2,726 8.2 -6.3°
Reaches altitude 10° 16:51:57 10° 281° (W) 1,831 7.3 -6.6°
Maximum altitude 16:56:01 54° 204° (SSW) 674 4.4 -7.2°
Drops below altitude 10° 17:00:04 10° 127° (SE) 1,826 6.0 -7.7°
Enters shadow 17:02:46 -2° 122° (ESE) 2,894 6.9 -8.1°
